Location: Aula-Vintri
(58.3875°N, 22.4322°E)
Time: 19:49:27
(UTC+00:00)

Cosmos 1626 Rocket - Pass Details

Date: 13 October 2019
Orbit: 604 x 630 km, 82.5° (Epoch: 22 November)

Event Time Altitude Azimuth Distance (km) Brightness Sun altitude
Rises 16:02:27 0° 344° (NNW) 2,886 7.1 -4.8°
Reaches altitude 10° 16:04:41 10° 341° (NNW) 1,980 6.3 -5.1°
Maximum altitude 16:08:59 57° 263° (W) 726 4.4 -5.7°
Drops below altitude 10° 16:13:17 10° 185° (S) 1,980 6.3 -6.2°
Sets 16:15:32 0° 181° (S) 2,885 7.1 -6.5°
